FLOCK 2E-11

Last updated on March 4, 2018, 12:15 a.m. UTC

1 41574U 98067JY  18062.82927663  .08399169  12325-4  83007-3 0  9994
2 41574  51.5802 108.9826 0002045  91.6097 269.0366 16.37402810100624

Satellite is not in orbit.